Terug naar catalogus

STARLINK-4332

ActiefCommunicatieSSO
NORAD 53190·PAYLOAD·🇺🇸 United States

Gelanceerd Jul 22, 2022 vanaf Vandenberg Space Force Base

Loading…

Volgende Passages (komende 24 uur)

TLE

VersSource: CelesTrak SupGP

Epoch: Sep 14, 2026, 22:05 UTC

1 53190C 22084B   26257.92062500  .00005031  00000+0  15621-3 0  2573
2 53190  97.2830 313.7783 0001407  88.2390 131.6729 15.33427608    12

Volg STARLINK-4332 in realtime met AllMySat

Download on the App Store